This is the latest recevied weather packets stored in our database for station/object N4MGC. If no packets are shown the sender has not sent any weather packets the latest 10 day(s).
| Time | Temp. | Humidity | Pressure | Rain* | Wind** | Luminosity | Snow |
|---|---|---|---|---|---|---|---|
| 1777756826 | 21.11° C | 35% | 1015.2 hPa | 0 mm | - | 472 W/m² | - |
| 1777756521 | 21.11° C | 39% | 1015.2 hPa | 0 mm | - | 114 W/m² | - |
| 1777755915 | 21.11° C | 37% | 1015.4 hPa | 0 mm | - | 521 W/m² | - |
| 1777755613 | 21.11° C | 36% | 1015.6 hPa | 0 mm | - | 150 W/m² | - |
| 1777753794 | 21.67° C | 37% | 1015.5 hPa | 0 mm | - | 588 W/m² | - |
| 1777753491 | 21.67° C | 36% | 1015.8 hPa | 0 mm | - | 614 W/m² | - |
| 1777753189 | 21.11° C | 37% | 1015.4 hPa | 0 mm | - | 587 W/m² | - |
| 1777752884 | 20.56° C | 36% | 1015.9 hPa | 0 mm | - | 648 W/m² | - |
| 1777752581 | 21.11° C | 36% | 1015.9 hPa | 0 mm | - | 609 W/m² | - |
| 1777752277 | 20.56° C | 38% | 1015.8 hPa | 0 mm | - | 637 W/m² | - |
| 1777751975 | 20° C | 39% | 1016 hPa | 0 mm | - | 154 W/m² | - |
| 1777751672 | 20.56° C | 37% | 1015.8 hPa | 0 mm | - | 154 W/m² | - |
| 1777751368 | 21.11° C | 38% | 1015.8 hPa | 0 mm | - | 423 W/m² | - |
| 1777751066 | 21.11° C | 38% | 1015.6 hPa | 0 mm | - | 635 W/m² | - |
| 1777750761 | 21.11° C | 38% | 1015.8 hPa | 0 mm | - | 663 W/m² | - |
| 1777750459 | 21.11° C | 38% | 1015.8 hPa | 0 mm | - | 630 W/m² | - |
| 1777750154 | 21.11° C | 36% | 1016 hPa | 0 mm | - | 644 W/m² | - |
| 1777749851 | 21.67° C | 41% | 1015.6 hPa | 0 mm | - | 765 W/m² | - |
| 1777749548 | 22.22° C | 38% | 1016.1 hPa | 0 mm | - | 428 W/m² | - |
| 1777749246 | 21.67° C | 37% | 1015.8 hPa | 0 mm | - | 762 W/m² | - |
| 1777748943 | 21.67° C | 38% | 1015.9 hPa | 0 mm | - | 711 W/m² | - |
| 1777748336 | 21.67° C | 41% | 1015.8 hPa | 0 mm | - | 596 W/m² | - |
| 1777748032 | 21.11° C | 36% | 1015.6 hPa | 0 mm | - | 710 W/m² | - |
| 1777747121 | 21.11° C | 37% | 1016.1 hPa | 0 mm | - | 700 W/m² | - |
| 1777744999 | 20° C | 36% | 1016.4 hPa | 0 mm | - | 475 W/m² | - |
* Rain latest hour (hover to see other rain measurements)
** Current wind speed in m/s (hover to see current wind gust speed)